Regional Weather Roundup
Issued by NWS

Home | Current Version | Previous Version | Text Only | Print | Product List | Glossary On
Versions: 1 2 3 4 5 6 7 8 9 10 11 12 13 14 15 16 17 18 19 20 21 22 23 24 25 26 27 28 29 30 31 32 33 34 35 36 37 38 39 40 41 42 43 44 45 46 47 48 49 50
000
ASUS43 KBIS 080810
RWRND

NORTH DAKOTA REGIONAL WEATHER ROUNDUP
NATIONAL WEATHER SERVICE BISMARCK ND
200 AM CST THU DEC 08 2016

NOTE: "FAIR" INDICATES FEW OR NO CLOUDS BELOW 12,000 FEET WITH NO
SIGNIFICANT WEATHER AND/OR OBSTRUCTIONS TO VISIBILITY.


NDZ001>003-009>011-017-080900-
NORTHWEST NORTH DAKOTA

CITY           SKY/WX    TMP DP  RH WIND       PRES   REMARKS
WILLISTON      CLOUDY    -1  -9  68 W12       30.61S WCI -18
MINOT          FLURRIES   5   0  79 W26       30.49R WCI -18
MINOT AFB      PTCLDY     4   0  81 NW26      30.48R WCI -19
$$

NDZ018>021-031>035-040>046-080900-
SOUTHWEST NORTH DAKOTA

CITY           SKY/WX    TMP DP  RH WIND       PRES   REMARKS
BISMARCK       MIX PCPN   4  -1  80 NW21G28   30.51S WCI -17
DICKINSON      CLEAR     -5 -10  79 NW16      30.49R WCI -27
GARRISON         N/A      3  -2  79 NW23      30.49R WCI -19
HETTINGER ARPT CLEAR     -2  -8  76 NW17      30.52R WCI -23
$$

NDZ004>008-012>016-024-026-027-054-080900-
NORTHEAST NORTH DAKOTA

CITY           SKY/WX    TMP DP  RH WIND       PRES   REMARKS
GRAND FORKS    LGT SNOW  18  13  80 NW25      30.32R WCI   0
GRND FRKS AFB  FLURRIES  15  10  81 N22       30.33R WCI  -3
$$

NDZ022-023-025-028>030-036>039-047>053-080900-
SOUTHEAST NORTH DAKOTA

CITY           SKY/WX    TMP DP  RH WIND       PRES   REMARKS
FARGO          LGT SNOW  17  11  77 NW25G33   30.30R WCI  -1
JAMESTOWN      CLOUDY     7   3  84 NW29G35   30.38R BLWGSNOWWCI -16
$$




USA.gov is the U.S. government's official web portal to all federal, state and local government web resources and services.